User: anonymous   Login
Location: Unspecified
(0.0000°N, 0.0000°E)
Time: 19:55:02
(UTC+01:00)
Language:

Cosmos 773 Rocket - Orbit

View from above orbital plane
View from above orbital plane
View from above satellite
View from above satellite

Ground track
Ground track

The orbit data is extracted from the following two-line orbital elements,

1 08344U 75094B   14302.90395073  .00000427  00000-0  14715-3 0  6058
2 08344 074.0574 096.6756 0022737 241.0103 281.1978 14.38820092 47429
Epoch (UTC): 29 October 2014 21:41:41
Eccentricity: 0.0022737
inclination: 74.0574°
perigee height: 746 km
apogee height: 778 km
right ascension of ascending node: 96.6756°
argument of perigee: 241.0103°
revolutions per day: 14.38820092
mean anomaly at epoch: 281.1978°
orbit number at epoch: 4742

The dashed part of the orbit path shows where the satellite is in the earth's shadow,  

DLR